| time (UTC) | temp F | wind direction | speed MPH | gust MPH | rain 1hr in | rain 24hr in | rain mn in | humidity % | barometer mb |
| 20260505054210 | 66 | 233 | 2.0 | 5.0 | 0.00 | 0.00 | 0.00 | 62 | 1003.2 |
| 20260505053708 | 66 | 215 | 3.0 | 6.0 | 0.00 | 0.00 | 0.00 | 62 | 1003.5 |
| 20260505053204 | 66 | 203 | 4.0 | 6.0 | 0.00 | 0.00 | 0.00 | 61 | 1003.6 |
| 20260505052702 | 67 | 200 | 5.0 | 7.0 | 0.00 | 0.00 | 0.00 | 60 | 1003.1 |
| 20260505052158 | 67 | 215 | 4.0 | 5.0 | 0.00 | 0.00 | 0.00 | 60 | 1003.2 |
| 20260505051655 | 67 | 198 | 3.0 | 5.0 | 0.00 | 0.00 | 0.00 | 60 | 1003.5 |
| 20260505051154 | 67 | 195 | 5.0 | 6.0 | 0.00 | 0.00 | 0.00 | 59 | 1003.4 |
| 20260505050651 | 67 | 241 | 3.0 | 5.0 | 0.00 | 0.00 | 0.00 | 59 | 1003.5 |
| 20260505050149 | 68 | 211 | 5.0 | 6.0 | 0.00 | 0.00 | 0.00 | 59 | 1003.7 |
| 20260505041619 | 68 | 273 | 1.0 | 3.0 | 0.00 | 0.00 | 0.00 | 59 | 1003.9 |
| 20260505041116 | 69 | 255 | 1.0 | 3.0 | 0.00 | 0.00 | 0.00 | 59 | 1004.0 |
| 20260505040613 | 68 | 252 | 1.0 | 5.0 | 0.00 | 0.00 | 0.00 | 58 | 1003.9 |
| 20260505040110 | 68 | 252 | 1.0 | 3.0 | 0.00 | 0.00 | 0.00 | 59 | 1004.1 |
| 20260505035607 | 69 | 252 | 1.0 | 3.0 | 0.00 | 0.00 | 0.00 | 59 | 1003.9 |
| 20260505035103 | 68 | 252 | 1.0 | 2.0 | 0.00 | 0.00 | 0.00 | 58 | 1004.0 |
| 20260505034600 | 69 | 251 | 1.0 | 3.0 | 0.00 | 0.00 | 0.00 | 59 | 1004.0 |
| 20260505034056 | 68 | 252 | 1.0 | 2.0 | 0.00 | 0.00 | 0.00 | 59 | 1004.0 |
| 20260505033553 | 68 | 241 | 2.0 | 3.0 | 0.00 | 0.00 | 0.00 | 60 | 1004.0 |
| 20260505033052 | 69 | 250 | 1.0 | 2.0 | 0.00 | 0.00 | 0.00 | 59 | 1003.8 |
| 20260505032549 | 69 | 251 | 1.0 | 2.0 | 0.00 | 0.00 | 0.00 | 59 | 1003.8 |
| 20260505032045 | 69 | 247 | 2.0 | 2.0 | 0.00 | 0.00 | 0.00 | 59 | 1003.9 |
| 20260505031543 | 69 | 226 | 3.0 | 3.0 | 0.00 | 0.00 | 0.00 | 60 | 1003.9 |
| 20260505031039 | 68 | 250 | 1.0 | 1.0 | 0.00 | 0.00 | 0.00 | 60 | 1004.0 |
| 20260505030536 | 68 | 244 | 2.0 | 2.0 | 0.00 | 0.00 | 0.00 | 60 | 1003.5 |
| 20260505030032 | 68 | 233 | 1.0 | 2.0 | 0.00 | 0.00 | 0.00 | 61 | 1003.6 |
| 20260505025528 | 68 | 233 | 1.0 | 2.0 | 0.00 | 0.00 | 0.00 | 61 | 1003.6 |
| 20260505025027 | 68 | 233 | 1.0 | 3.0 | 0.00 | 0.00 | 0.00 | 61 | 1003.4 |
| 20260505024524 | 69 | 233 | 1.0 | 2.0 | 0.00 | 0.00 | 0.00 | 60 | 1003.4 |
| 20260505024021 | 69 | 234 | 0.0 | 1.0 | 0.00 | 0.00 | 0.00 | 59 | 1003.3 |
| 20260505023518 | 69 | 234 | 1.0 | 1.0 | 0.00 | 0.00 | 0.00 | 59 | 1003.5 |
| 20260505023016 | 69 | 234 | 1.0 | 2.0 | 0.00 | 0.00 | 0.00 | 59 | 1003.3 |
| 20260505022513 | 69 | 234 | 1.0 | 2.0 | 0.00 | 0.00 | 0.00 | 59 | 1003.2 |
| 20260505022010 | 69 | 231 | 3.0 | 3.0 | 0.00 | 0.00 | 0.00 | 58 | 1003.2 |
| 20260505021506 | 69 | 233 | 2.0 | 3.0 | 0.00 | 0.00 | 0.00 | 58 | 1003.0 |
| 20260505021003 | 69 | 222 | 1.0 | 3.0 | 0.00 | 0.00 | 0.00 | 58 | 1003.2 |
| 20260505020458 | 69 | 224 | 3.0 | 3.0 | 0.00 | 0.00 | 0.00 | 59 | 1002.9 |
| 20260505015954 | 70 | 204 | 3.0 | 3.0 | 0.00 | 0.00 | 0.00 | 58 | 1002.8 |
| 20260505015452 | 69 | 232 | 3.0 | 3.0 | 0.00 | 0.00 | 0.00 | 58 | 1002.5 |
| 20260505014949 | 70 | 232 | 3.0 | 3.0 | 0.00 | 0.00 | 0.00 | 58 | 1002.6 |
| 20260505014446 | 70 | 233 | 1.0 | 2.0 | 0.00 | 0.00 | 0.00 | 58 | 1002.7 |
| 20260505013943 | 70 | 233 | 2.0 | 2.0 | 0.00 | 0.00 | 0.00 | 57 | 1002.7 |
| 20260505013440 | 70 | 230 | 3.0 | 3.0 | 0.00 | 0.00 | 0.00 | 57 | 1002.6 |
| 20260505012937 | 71 | 227 | 3.0 | 3.0 | 0.00 | 0.00 | 0.00 | 57 | 1002.6 |
| 20260505012435 | 71 | 226 | 3.0 | 3.0 | 0.00 | 0.00 | 0.00 | 56 | 1002.6 |
| 20260505011931 | 70 | 220 | 3.0 | 3.0 | 0.00 | 0.00 | 0.00 | 57 | 1002.5 |
| 20260505011427 | 71 | 222 | 3.0 | 3.0 | 0.00 | 0.00 | 0.00 | 56 | 1002.6 |
| 20260505010925 | 71 | 232 | 2.0 | 3.0 | 0.00 | 0.00 | 0.00 | 55 | 1002.6 |
| 20260505010420 | 71 | 233 | 2.0 | 3.0 | 0.00 | 0.00 | 0.00 | 55 | 1002.5 |
| 20260505005917 | 71 | 227 | 3.0 | 5.0 | 0.00 | 0.00 | 0.00 | 54 | 1002.5 |
| 20260505005414 | 72 | 227 | 3.0 | 3.0 | 0.00 | 0.00 | 0.00 | 54 | 1002.6 |
| 20260505004911 | 72 | 221 | 3.0 | 6.0 | 0.00 | 0.00 | 0.00 | 53 | 1002.3 |
| 20260505004408 | 72 | 233 | 2.0 | 5.0 | 0.00 | 0.00 | 0.00 | 53 | 1002.2 |
| 20260505003905 | 72 | 205 | 4.0 | 5.0 | 0.00 | 0.00 | 0.00 | 52 | 1002.2 |
| 20260505003402 | 73 | 207 | 4.0 | 5.0 | 0.00 | 0.00 | 0.00 | 52 | 1002.3 |
| 20260505002858 | 73 | 206 | 3.0 | 3.0 | 0.00 | 0.00 | 0.00 | 52 | 1002.5 |
| 20260505002354 | 73 | 218 | 2.0 | 3.0 | 0.00 | 0.00 | 0.00 | 51 | 1002.3 |
| 20260505001853 | 73 | 209 | 3.0 | 5.0 | 0.00 | 0.00 | 0.00 | 50 | 1002.3 |
| 20260505001349 | 73 | 197 | 4.0 | 7.0 | 0.00 | 0.00 | 0.00 | 50 | 1002.6 |
| 20260505000847 | 73 | 216 | 3.0 | 3.0 | 0.00 | 0.00 | 0.00 | 49 | 1002.6 |
| 20260505000345 | 74 | 240 | 2.0 | 6.0 | 0.00 | 0.00 | 0.00 | 49 | 1002.6 |
| 20260504235841 | 74 | 246 | 2.0 | 3.0 | 0.00 | 0.00 | 0.00 | 49 | 1002.8 |
| 20260504235338 | 75 | 263 | 1.0 | 3.0 | 0.00 | 0.00 | 0.00 | 47 | 1002.7 |
| 20260504234835 | 74 | 264 | 1.0 | 5.0 | 0.00 | 0.00 | 0.00 | 46 | 1002.8 |
| 20260504234332 | 75 | 249 | 1.0 | 6.0 | 0.00 | 0.00 | 0.00 | 46 | 1003.2 |
| 20260504233829 | 75 | 299 | 2.0 | 5.0 | 0.00 | 0.00 | 0.00 | 45 | 1003.0 |
| 20260504233324 | 75 | 238 | 2.0 | 5.0 | 0.00 | 0.00 | 0.00 | 44 | 1003.0 |
| 20260504232822 | 75 | 253 | 4.0 | 9.0 | 0.00 | 0.00 | 0.00 | 44 | 1003.0 |
| 20260504232319 | 76 | 196 | 4.0 | 5.0 | 0.00 | 0.00 | 0.00 | 45 | 1003.1 |
| 20260504231815 | 76 | 258 | 2.0 | 6.0 | 0.00 | 0.00 | 0.00 | 44 | 1003.1 |
| 20260504231312 | 76 | 261 | 4.0 | 6.0 | 0.00 | 0.00 | 0.00 | 45 | 1003.1 |
| 20260504230808 | 76 | 238 | 3.0 | 5.0 | 0.00 | 0.00 | 0.00 | 44 | 1003.3 |
| 20260504230306 | 76 | 253 | 2.0 | 7.0 | 0.00 | 0.00 | 0.00 | 45 | 1002.9 |
| 20260504225805 | 77 | 273 | 3.0 | 9.0 | 0.00 | 0.00 | 0.00 | 44 | 1003.2 |
| 20260504225301 | 77 | 241 | 2.0 | 3.0 | 0.00 | 0.00 | 0.00 | 44 | 1003.4 |
| 20260504224758 | 76 | 206 | 3.0 | 7.0 | 0.00 | 0.00 | 0.00 | 44 | 1003.5 |
| 20260504224255 | 77 | 275 | 2.0 | 9.0 | 0.00 | 0.00 | 0.00 | 45 | 1003.3 |
| 20260504223751 | 77 | 265 | 3.0 | 6.0 | 0.00 | 0.00 | 0.00 | 44 | 1003.4 |
| 20260504223247 | 78 | 212 | 4.0 | 5.0 | 0.00 | 0.00 | 0.00 | 46 | 1003.2 |
| 20260504222744 | 77 | 249 | 7.0 | 11.0 | 0.00 | 0.00 | 0.00 | 44 | 1003.4 |
| 20260504222241 | 76 | 256 | 2.0 | 7.0 | 0.00 | 0.00 | 0.00 | 46 | 1003.4 |
| 20260504221739 | 75 | 238 | 6.0 | 9.0 | 0.00 | 0.00 | 0.00 | 49 | 1003.2 |
| 20260504221236 | 75 | 210 | 3.0 | 3.0 | 0.00 | 0.00 | 0.00 | 52 | 1003.1 |
| 20260504220732 | 75 | 199 | 5.0 | 6.0 | 0.00 | 0.00 | 0.00 | 52 | 1003.5 |
| 20260504220229 | 75 | 207 | 4.0 | 5.0 | 0.00 | 0.00 | 0.00 | 52 | 1003.3 |
| 20260504215727 | 75 | 213 | 3.0 | 3.0 | 0.00 | 0.00 | 0.00 | 51 | 1003.4 |
| 20260504215223 | 75 | 278 | 0.0 | 2.0 | 0.00 | 0.00 | 0.00 | 50 | 1003.7 |
| 20260504214719 | 75 | 270 | 0.0 | 2.0 | 0.00 | 0.00 | 0.00 | 50 | 1003.7 |
| 20260504214215 | 75 | 273 | 0.0 | 2.0 | 0.00 | 0.00 | 0.00 | 51 | 1003.7 |
| 20260504213712 | 76 | 260 | 1.0 | 5.0 | 0.00 | 0.00 | 0.00 | 51 | 1003.7 |
| 20260504213209 | 75 | 210 | 3.0 | 3.0 | 0.00 | 0.00 | 0.00 | 52 | 1003.8 |
| 20260504212706 | 76 | 223 | 3.0 | 3.0 | 0.00 | 0.00 | 0.00 | 50 | 1004.0 |
| 20260504212203 | 76 | 277 | 3.0 | 7.0 | 0.00 | 0.00 | 0.00 | 48 | 1004.1 |
| 20260504211700 | 77 | 291 | 0.0 | 6.0 | 0.00 | 0.00 | 0.00 | 47 | 1003.9 |
| 20260504211156 | 77 | 274 | 3.0 | 5.0 | 0.00 | 0.00 | 0.00 | 47 | 1004.0 |
| 20260504210654 | 77 | 266 | 1.0 | 2.0 | 0.00 | 0.00 | 0.00 | 47 | 1003.9 |
| 20260504210150 | 76 | 270 | 2.0 | 5.0 | 0.00 | 0.00 | 0.00 | 48 | 1004.3 |
| 20260504205648 | 77 | 259 | 2.0 | 6.0 | 0.00 | 0.00 | 0.00 | 48 | 1004.2 |
| 20260504205144 | 77 | 292 | 1.0 | 2.0 | 0.00 | 0.00 | 0.00 | 47 | 1004.3 |
| 20260504204643 | 79 | 293 | 2.0 | 6.0 | 0.00 | 0.00 | 0.00 | 46 | 1004.2 |
| 20260504204142 | 78 | 285 | 2.0 | 6.0 | 0.00 | 0.00 | 0.00 | 47 | 1004.3 |
| 20260504203640 | 78 | 260 | 2.0 | 2.0 | 0.00 | 0.00 | 0.00 | 46 | 1004.2 |
| 20260504203137 | 77 | 307 | 5.0 | 8.0 | 0.00 | 0.00 | 0.00 | 46 | 1004.5 |
| 20260504202637 | 77 | 266 | 1.0 | 2.0 | 0.00 | 0.00 | 0.00 | 48 | 1005.0 |
| 20260504202134 | 76 | 251 | 1.0 | 2.0 | 0.00 | 0.00 | 0.00 | 48 | 1004.6 |
| 20260504201631 | 76 | 260 | 2.0 | 3.0 | 0.00 | 0.00 | 0.00 | 50 | 1004.7 |
| 20260504201129 | 75 | 291 | 4.0 | 6.0 | 0.00 | 0.00 | 0.00 | 47 | 1004.6 |
| 20260504200626 | 75 | 184 | 3.0 | 5.0 | 0.00 | 0.00 | 0.00 | 51 | 1004.9 |
| 20260504200122 | 76 | 251 | 0.0 | 2.0 | 0.00 | 0.00 | 0.00 | 49 | 1004.9 |
| 20260504195618 | 76 | 291 | 2.0 | 3.0 | 0.00 | 0.00 | 0.00 | 48 | 1005.1 |
| 20260504195115 | 74 | 275 | 1.0 | 5.0 | 0.00 | 0.00 | 0.00 | 51 | 1005.2 |
| 20260504194612 | 74 | 220 | 2.0 | 6.0 | 0.00 | 0.00 | 0.00 | 54 | 1005.3 |
| 20260504194107 | 75 | 228 | 3.0 | 5.0 | 0.00 | 0.00 | 0.00 | 51 | 1005.5 |
| 20260504193604 | 75 | 258 | 2.0 | 3.0 | 0.00 | 0.00 | 0.00 | 50 | 1005.7 |
| 20260504193103 | 75 | 245 | 2.0 | 5.0 | 0.00 | 0.00 | 0.00 | 55 | 1005.6 |
| 20260504192600 | 74 | 268 | 2.0 | 7.0 | 0.00 | 0.00 | 0.00 | 53 | 1005.7 |
| 20260504192058 | 73 | 264 | 1.0 | 3.0 | 0.00 | 0.00 | 0.00 | 56 | 1005.6 |
| 20260504191556 | 74 | 195 | 8.0 | 9.0 | 0.00 | 0.00 | 0.00 | 54 | 1005.7 |
| 20260504191052 | 74 | 266 | 2.0 | 7.0 | 0.00 | 0.00 | 0.00 | 53 | 1006.0 |
| 20260504190548 | 73 | 249 | 1.0 | 3.0 | 0.00 | 0.00 | 0.00 | 56 | 1006.0 |
| 20260504190044 | 71 | 306 | 2.0 | 6.0 | 0.00 | 0.00 | 0.00 | 56 | 1005.9 |
| 20260504185542 | 71 | 353 | 3.0 | 3.0 | 0.00 | 0.00 | 0.00 | 56 | 1006.0 |
| 20260504185038 | 71 | 247 | 2.0 | 3.0 | 0.00 | 0.00 | 0.00 | 57 | 1006.3 |
| 20260504184534 | 70 | 282 | 0.0 | 2.0 | 0.00 | 0.00 | 0.00 | 59 | 1006.3 |
| 20260504184029 | 70 | 253 | 2.0 | 5.0 | 0.00 | 0.00 | 0.00 | 59 | 1006.1 |
| 20260504183527 | 70 | 268 | 1.0 | 3.0 | 0.00 | 0.00 | 0.00 | 60 | 1006.4 |
| 20260504183025 | 70 | 208 | 4.0 | 5.0 | 0.00 | 0.00 | 0.00 | 61 | 1006.3 |
| 20260504182521 | 70 | 295 | 3.0 | 8.0 | 0.00 | 0.00 | 0.00 | 59 | 1006.2 |
| 20260504182019 | 70 | 263 | 3.0 | 6.0 | 0.00 | 0.00 | 0.00 | 59 | 1005.8 |
| 20260504181515 | 69 | 255 | 3.0 | 7.0 | 0.00 | 0.00 | 0.00 | 58 | 1006.0 |
| 20260504181014 | 69 | 221 | 6.0 | 7.0 | 0.00 | 0.00 | 0.00 | 60 | 1005.8 |
| 20260504180512 | 69 | 269 | 2.0 | 5.0 | 0.00 | 0.00 | 0.00 | 60 | 1005.7 |
| 20260504180011 | 69 | 229 | 5.0 | 8.0 | 0.00 | 0.00 | 0.00 | 61 | 1005.8 |
| 20260504175508 | 69 | 233 | 3.0 | 7.0 | 0.00 | 0.00 | 0.00 | 59 | 1005.6 |
| 20260504175005 | 69 | 257 | 3.0 | 9.0 | 0.00 | 0.00 | 0.00 | 59 | 1005.9 |
| 20260504174503 | 69 | 213 | 3.0 | 7.0 | 0.00 | 0.00 | 0.00 | 60 | 1005.6 |
| 20260504173959 | 69 | 274 | 6.0 | 10.0 | 0.00 | 0.00 | 0.00 | 58 | 1005.6 |
| 20260504173456 | 71 | 184 | 7.0 | 10.0 | 0.00 | 0.00 | 0.00 | 59 | 1005.7 |
| 20260504172953 | 70 | 267 | 3.0 | 5.0 | 0.00 | 0.00 | 0.00 | 58 | 1005.9 |
| 20260504172449 | 69 | 201 | 4.0 | 5.0 | 0.00 | 0.00 | 0.00 | 59 | 1005.8 |
| 20260504171946 | 69 | 267 | 1.0 | 7.0 | 0.00 | 0.00 | 0.00 | 59 | 1005.8 |
| 20260504171443 | 69 | 238 | 4.0 | 7.0 | 0.00 | 0.00 | 0.00 | 59 | 1005.5 |
| 20260504170940 | 69 | 188 | 10.0 | 10.0 | 0.00 | 0.00 | 0.00 | 59 | 1004.9 |
| 20260504170436 | 69 | 199 | 5.0 | 6.0 | 0.00 | 0.00 | 0.00 | 59 | 1005.5 |
| 20260504160355 | 69 | 279 | 1.0 | 3.0 | 0.00 | 0.00 | 0.00 | 57 | 1006.5 |
| 20260504150820 | 64 | 199 | 5.0 | 6.0 | 0.00 | 0.00 | 0.00 | 63 | 1006.4 |
| 20260504150316 | 64 | 192 | 4.0 | 5.0 | 0.00 | 0.00 | 0.00 | 64 | 1006.5 |
| 20260504141247 | 62 | 206 | 5.0 | 9.0 | 0.00 | 0.00 | 0.00 | 64 | 1006.8 |
| 20260504140743 | 62 | 229 | 2.0 | 6.0 | 0.00 | 0.00 | 0.00 | 67 | 1006.9 |
| 20260504140239 | 62 | 207 | 5.0 | 6.0 | 0.00 | 0.00 | 0.00 | 66 | 1007.0 |
| 20260504130708 | 57 | 214 | 3.0 | 5.0 | 0.00 | 0.00 | 0.00 | 72 | 1007.6 |
| 20260504130203 | 57 | 193 | 3.0 | 5.0 | 0.00 | 0.00 | 0.00 | 70 | 1007.5 |
| 20260504120127 | 53 | 268 | 0.0 | 1.0 | 0.00 | 0.00 | 0.00 | 72 | 1007.7 |
| 20260504110555 | 51 | 271 | 0.0 | 1.0 | 0.00 | 0.00 | 0.00 | 73 | 1007.3 |
| 20260504100517 | 50 | 283 | 0.0 | 0.0 | 0.00 | 0.00 | 0.00 | 71 | 1007.8 |
| 20260504081910 | 51 | 268 | 1.0 | 1.0 | 0.00 | 0.00 | 0.00 | 69 | 1008.2 |
| 20260504081407 | 50 | 282 | 1.0 | 1.0 | 0.00 | 0.00 | 0.00 | 69 | 1008.5 |
| 20260504080903 | 50 | 295 | 0.0 | 1.0 | 0.00 | 0.00 | 0.00 | 71 | 1008.1 |
| 20260504080400 | 50 | 298 | 1.0 | 1.0 | 0.00 | 0.00 | 0.00 | 72 | 1008.6 |
| 20260504070327 | 50 | 267 | 0.0 | 1.0 | 0.00 | 0.00 | 0.00 | 72 | 1008.5 |
| 20260504060247 | 49 | 267 | 1.0 | 1.0 | 0.00 | 0.00 | 0.00 | 73 | 1009.7 |